Sisseton, SD

4:10 AM CDT on August 23, 2017 (GMT -0500)
Sisseton

Weather History for K8D3 - March, 2013

Change the Weather History Date:

Monday, March 18, 2013

  Actual Average Record
Temperature  
Mean Temperature 21 °F 31 °F  
Max Temperature 35 °F 40 °F 82 °F (2012)
Min Temperature 6 °F 22 °F -4 °F (1965)
Degree Days  
Heating Degree Days 44 34  
Month to date heating degree days 835 682  
Since 1 July heating degree days 7220 6941  
Cooling Degree Days 0 0  
Month to date cooling degree days 0 0  
Year to date cooling degree days 0 0  
Moisture  
Dew Point 10 °F    
Average Humidity 87    
Maximum Humidity 100    
Minimum Humidity 73    
Precipitation  
Precipitation 0.00 in 0.03 in 0.33 in (1903)
Month to date precipitation 0.92 0.61  
Year to date precipitation 3.30 1.47  
Snow  
Snow 0.00 in - - ()
Month to date snowfall 5.4  
Since 1 July snowfall 42.1  
Snow Depth 15.00 in    
Sea Level Pressure  
Sea Level Pressure 29.81 in    
Wind  
Wind Speed 27 mph (NW)    
Max Wind Speed 38 mph    
Max Gust Speed 48 mph    
T = Trace of Precipitation, MM = Missing Value Source: NWS Daily Summary

Daily Weather History Graph

Daily Weather History Graph

Search for Another Location

Airport or City:

Trip Planner

Search our weather history database for the weather conditions in past years. The results will help you decide how hot, cold, wet, or windy it might be!

Date:

Astronomy

Mar. 18, 2013 Rise Set
Actual Time 7:34 AM CDT 7:38 PM CDT
Civil Twilight 7:04 AM CDT 8:07 PM CDT
Nautical Twilight 6:30 AM CDT 8:42 PM CDT
Astronomical Twilight 5:54 AM CDT 9:18 PM CDT
Moon 11:17 AM CDT (3/18) 1:55 AM CDT (3/18)
Length of Visible Light 13h 03m
Length of Day
12h 03m
Waxing Crescent, 41% of the Moon is Illuminated
Mar 18
Waxing Crescent
Mar 19
First Quarter
Mar 27
Full
Apr 2
Last Quarter
Apr 10
New

Hourly Weather History & Observations

Time (CDT) Temp. Windchill Dew Point Humidity Pressure Visibility Wind Dir Wind Speed Gust Speed Precip Events Conditions
12:56 AM 28.9 °F 15.8 °F 28.0 °F 96% 29.61 in - South 20.7 mph - 0.01 in   Unknown
1:56 AM 32.0 °F 20.5 °F 30.0 °F 92% 29.56 in - South 18.4 mph - N/A   Unknown
2:56 AM 34.0 °F 22.4 °F 32.0 °F 92% 29.51 in - South 20.7 mph - N/A   Unknown
3:56 AM 32.0 °F 16.5 °F 28.0 °F 85% 29.49 in - WNW 35.7 mph 43.7 mph N/A   Unknown
4:56 AM 24.1 °F 8.7 °F 19.0 °F 81% 29.57 in - NW 23.0 mph 36.8 mph N/A   Unknown
5:56 AM 18.0 °F -1.1 °F 14.0 °F 84% 29.62 in - NW 28.8 mph 40.3 mph N/A   Unknown
6:56 AM 14.0 °F -7.4 °F 10.0 °F 84% 29.68 in - NW 32.2 mph 44.9 mph N/A   Unknown
7:56 AM 12.0 °F -9.5 °F 8.1 °F 84% 29.71 in - NW 29.9 mph 42.6 mph N/A   Unknown
8:56 AM 10.9 °F -11.0 °F 7.0 °F 84% 29.73 in - WNW 29.9 mph 36.8 mph N/A   Unknown
9:56 AM 10.0 °F -13.1 °F 5.0 °F 80% 29.75 in - NW 33.4 mph 39.1 mph N/A   Unknown
10:56 AM 12.0 °F -10.4 °F 6.1 °F 77% 29.78 in - NW 33.4 mph 44.9 mph N/A   Unknown
11:56 AM 12.9 °F -8.6 °F 6.1 °F 74% 29.80 in - NNW 31.1 mph 41.4 mph N/A   Unknown
12:56 PM 12.9 °F -9.2 °F 6.1 °F 74% 29.83 in - NW 33.4 mph 41.4 mph N/A   Unknown
1:56 PM 12.9 °F -8.9 °F 7.0 °F 77% 29.84 in - NW 32.2 mph 43.7 mph N/A   Unknown
2:56 PM 12.9 °F -8.6 °F 8.1 °F 81% 29.86 in - NNW 31.1 mph 39.1 mph N/A   Unknown
3:56 PM 12.9 °F -8.6 °F 8.1 °F 81% 29.88 in - NW 31.1 mph 40.3 mph N/A   Unknown
4:56 PM 14.0 °F -5.8 °F 8.1 °F 77% 29.91 in - NW 26.5 mph 39.1 mph N/A   Unknown
5:56 PM 12.9 °F -8.3 °F 7.0 °F 77% 29.95 in - NNW 29.9 mph 35.7 mph N/A   Unknown
6:56 PM 10.9 °F -9.2 °F 5.0 °F 77% 29.99 in - NNW 24.2 mph 34.5 mph N/A   Unknown
7:56 PM 10.0 °F -10.0 °F 3.0 °F 73% 30.03 in - NNW 23.0 mph - N/A   Unknown
8:56 PM 9.0 °F -11.0 °F 3.0 °F 77% 30.05 in - NNW 21.9 mph - N/A   Unknown
9:56 PM 8.1 °F -12.6 °F 1.9 °F 76% 30.08 in - NNW 23.0 mph - N/A   Unknown
10:56 PM 8.1 °F -12.2 °F 1.0 °F 73% 30.09 in - NNW 21.9 mph - N/A   Unknown
11:56 PM 7.0 °F -13.1 °F -0.0 °F 73% 30.10 in - NNW 20.7 mph - N/A   Unknown